| time (UTC) | temp F | wind direction | speed MPH | gust MPH | rain 1hr in | rain 24hr in | rain mn in | humidity % | barometer mb |
| 20260507150016 | 48 | 41 | 4.0 | 9.0 | 0.02 | 0.11 | 0.11 | 87 | 1015.0 |
| 20260507145716 | 48 | 37 | 4.0 | 8.0 | 0.02 | 0.11 | 0.11 | 87 | 1015.0 |
| 20260507145416 | 48 | 34 | 4.0 | 10.0 | 0.02 | 0.11 | 0.11 | 87 | 1015.0 |
| 20260507145116 | 48 | 43 | 5.0 | 10.0 | 0.02 | 0.11 | 0.11 | 87 | 1014.9 |
| 20260507144816 | 48 | 39 | 3.0 | 9.0 | 0.02 | 0.11 | 0.11 | 87 | 1014.9 |
| 20260507144516 | 48 | 34 | 3.0 | 7.0 | 0.02 | 0.11 | 0.11 | 87 | 1014.9 |
| 20260507144215 | 48 | 39 | 5.0 | 9.0 | 0.02 | 0.11 | 0.11 | 87 | 1014.9 |
| 20260507143917 | 48 | 41 | 5.0 | 8.0 | 0.02 | 0.11 | 0.11 | 87 | 1014.8 |
| 20260507143615 | 48 | 45 | 4.0 | 8.0 | 0.02 | 0.11 | 0.11 | 87 | 1014.9 |
| 20260507143316 | 48 | 46 | 5.0 | 10.0 | 0.02 | 0.11 | 0.11 | 87 | 1014.9 |
| 20260507143016 | 48 | 44 | 7.0 | 12.0 | 0.01 | 0.10 | 0.10 | 87 | 1014.8 |
| 20260507142719 | 48 | 43 | 5.0 | 11.0 | 0.01 | 0.10 | 0.10 | 87 | 1014.8 |
| 20260507142416 | 48 | 47 | 6.0 | 11.0 | 0.01 | 0.10 | 0.10 | 87 | 1014.8 |
| 20260507142115 | 48 | 34 | 6.0 | 11.0 | 0.01 | 0.10 | 0.10 | 87 | 1014.8 |
| 20260507141819 | 48 | 44 | 5.0 | 10.0 | 0.01 | 0.10 | 0.10 | 87 | 1014.8 |
| 20260507141556 | 48 | 37 | 5.0 | 9.0 | 0.01 | 0.10 | 0.10 | 87 | 1014.7 |
| 20260507141216 | 48 | 34 | 6.0 | 13.0 | 0.01 | 0.10 | 0.10 | 87 | 1014.7 |
| 20260507140916 | 48 | 47 | 5.0 | 12.0 | 0.02 | 0.10 | 0.10 | 88 | 1014.7 |
| 20260507140616 | 48 | 27 | 5.0 | 14.0 | 0.02 | 0.10 | 0.10 | 88 | 1014.7 |
| 20260507140316 | 47 | 48 | 2.0 | 8.0 | 0.02 | 0.10 | 0.10 | 88 | 1014.7 |
| 20260507140015 | 47 | 38 | 5.0 | 10.0 | 0.01 | 0.09 | 0.09 | 88 | 1014.6 |
| 20260507135716 | 47 | 32 | 6.0 | 10.0 | 0.01 | 0.09 | 0.09 | 88 | 1014.6 |
| 20260507135416 | 47 | 29 | 5.0 | 11.0 | 0.01 | 0.09 | 0.09 | 88 | 1014.6 |
| 20260507135116 | 47 | 41 | 6.0 | 12.0 | 0.01 | 0.09 | 0.09 | 88 | 1014.7 |
| 20260507134856 | 47 | 39 | 6.0 | 14.0 | 0.02 | 0.09 | 0.09 | 88 | 1014.6 |
| 20260507134516 | 47 | 33 | 5.0 | 10.0 | 0.02 | 0.09 | 0.09 | 88 | 1014.6 |
| 20260507134336 | 47 | 26 | 6.0 | 12.0 | 0.02 | 0.09 | 0.09 | 88 | 1014.5 |
| 20260507133918 | 47 | 30 | 6.0 | 12.0 | 0.02 | 0.09 | 0.09 | 88 | 1014.5 |
| 20260507133656 | 47 | 23 | 4.0 | 9.0 | 0.02 | 0.09 | 0.09 | 88 | 1014.4 |
| 20260507133316 | 47 | 20 | 5.0 | 13.0 | 0.02 | 0.09 | 0.09 | 88 | 1014.4 |
| 20260507133056 | 47 | 33 | 3.0 | 7.0 | 0.03 | 0.09 | 0.09 | 89 | 1014.4 |
| 20260507132839 | 47 | 34 | 5.0 | 13.0 | 0.03 | 0.09 | 0.09 | 89 | 1014.4 |
| 20260507132415 | 47 | 30 | 5.0 | 8.0 | 0.04 | 0.09 | 0.09 | 89 | 1014.3 |
| 20260507132156 | 47 | 30 | 7.0 | 14.0 | 0.04 | 0.09 | 0.09 | 89 | 1014.4 |
| 20260507131818 | 47 | 36 | 3.0 | 8.0 | 0.05 | 0.09 | 0.09 | 89 | 1014.4 |
| 20260507131516 | 47 | 32 | 4.0 | 9.0 | 0.05 | 0.09 | 0.09 | 89 | 1014.4 |
| 20260507131215 | 47 | 37 | 5.0 | 9.0 | 0.06 | 0.09 | 0.09 | 89 | 1014.4 |
| 20260507130916 | 47 | 21 | 5.0 | 10.0 | 0.05 | 0.09 | 0.09 | 89 | 1014.4 |
| 20260507130616 | 47 | 10 | 5.0 | 12.0 | 0.05 | 0.09 | 0.09 | 89 | 1014.4 |
| 20260507130316 | 47 | 11 | 3.0 | 8.0 | 0.05 | 0.09 | 0.09 | 89 | 1014.4 |
| 20260507130015 | 47 | 16 | 4.0 | 9.0 | 0.06 | 0.09 | 0.09 | 89 | 1014.3 |
| 20260507125755 | 47 | 15 | 7.0 | 12.0 | 0.06 | 0.09 | 0.09 | 89 | 1014.3 |
| 20260507125419 | 47 | 21 | 3.0 | 7.0 | 0.06 | 0.09 | 0.09 | 89 | 1014.4 |
| 20260507125115 | 47 | 22 | 5.0 | 10.0 | 0.06 | 0.09 | 0.09 | 89 | 1014.4 |
| 20260507124816 | 47 | 17 | 5.0 | 8.0 | 0.06 | 0.08 | 0.08 | 89 | 1014.4 |
| 20260507124516 | 47 | 22 | 5.0 | 9.0 | 0.06 | 0.08 | 0.08 | 89 | 1014.3 |
| 20260507124339 | 46 | 12 | 5.0 | 9.0 | 0.06 | 0.08 | 0.08 | 89 | 1014.3 |
| 20260507123916 | 46 | 14 | 5.0 | 9.0 | 0.06 | 0.08 | 0.08 | 89 | 1014.2 |
| 20260507123615 | 46 | 20 | 5.0 | 11.0 | 0.06 | 0.07 | 0.07 | 88 | 1014.2 |
| 20260507123316 | 46 | 20 | 6.0 | 12.0 | 0.06 | 0.07 | 0.07 | 88 | 1014.2 |
| 20260507123015 | 46 | 12 | 6.0 | 12.0 | 0.06 | 0.06 | 0.06 | 88 | 1014.1 |
| 20260507122716 | 46 | 20 | 5.0 | 12.0 | 0.06 | 0.06 | 0.06 | 88 | 1014.0 |
| 20260507122619 | 46 | 13 | 4.0 | 8.0 | 0.05 | 0.06 | 0.06 | 88 | 1014.0 |
| 20260507122116 | 47 | 25 | 5.0 | 12.0 | 0.05 | 0.06 | 0.06 | 88 | 1013.9 |
| 20260507121816 | 47 | 15 | 4.0 | 7.0 | 0.04 | 0.05 | 0.05 | 88 | 1013.9 |
| 20260507121516 | 47 | 24 | 3.0 | 9.0 | 0.05 | 0.05 | 0.05 | 88 | 1013.9 |
| 20260507121216 | 47 | 17 | 6.0 | 12.0 | 0.04 | 0.04 | 0.04 | 88 | 1013.8 |
| 20260507120916 | 47 | 15 | 3.0 | 12.0 | 0.04 | 0.04 | 0.04 | 88 | 1013.8 |
| 20260507120659 | 47 | 24 | 4.0 | 9.0 | 0.04 | 0.04 | 0.04 | 88 | 1013.7 |
| 20260507120316 | 47 | 26 | 4.0 | 8.0 | 0.04 | 0.04 | 0.04 | 88 | 1013.7 |
| 20260507120016 | 47 | 29 | 5.0 | 10.0 | 0.03 | 0.03 | 0.03 | 88 | 1013.7 |
| 20260507115716 | 47 | 15 | 3.0 | 6.0 | 0.03 | 0.03 | 0.03 | 87 | 1013.7 |
| 20260507115415 | 47 | 19 | 5.0 | 10.0 | 0.03 | 0.03 | 0.03 | 87 | 1013.6 |
| 20260507115159 | 47 | 25 | 5.0 | 11.0 | 0.03 | 0.03 | 0.03 | 87 | 1013.7 |
| 20260507114815 | 47 | 33 | 4.0 | 8.0 | 0.02 | 0.02 | 0.02 | 87 | 1013.6 |
| 20260507114556 | 47 | 36 | 4.0 | 9.0 | 0.02 | 0.02 | 0.02 | 87 | 1013.6 |
| 20260507114216 | 47 | 19 | 4.0 | 9.0 | 0.02 | 0.02 | 0.02 | 86 | 1013.6 |
| 20260507113919 | 47 | 35 | 5.0 | 8.0 | 0.02 | 0.02 | 0.02 | 86 | 1013.7 |
| 20260507113616 | 47 | 32 | 5.0 | 10.0 | 0.02 | 0.02 | 0.02 | 86 | 1013.6 |
| 20260507113315 | 47 | 26 | 3.0 | 7.0 | 0.01 | 0.01 | 0.01 | 86 | 1013.6 |
| 20260507113016 | 47 | 35 | 3.0 | 9.0 | 0.01 | 0.01 | 0.01 | 86 | 1013.6 |
| 20260507112838 | 47 | 33 | 3.0 | 6.0 | 0.01 | 0.01 | 0.01 | 86 | 1013.6 |
| 20260507112416 | 47 | 41 | 4.0 | 9.0 | 0.01 | 0.01 | 0.01 | 85 | 1013.6 |
| 20260507112116 | 47 | 28 | 4.0 | 10.0 | 0.01 | 0.01 | 0.01 | 85 | 1013.6 |
| 20260507111816 | 47 | 32 | 6.0 | 12.0 | 0.01 | 0.01 | 0.01 | 85 | 1013.6 |
| 20260507111556 | 48 | 32 | 6.0 | 12.0 | 0.00 | 0.00 | 0.00 | 85 | 1013.6 |
| 20260507111215 | 48 | 39 | 3.0 | 7.0 | 0.00 | 0.00 | 0.00 | 85 | 1013.5 |
| 20260507110916 | 47 | 34 | 3.0 | 6.0 | 0.00 | 0.00 | 0.00 | 85 | 1013.6 |
| 20260507110615 | 47 | 33 | 3.0 | 9.0 | 0.00 | 0.00 | 0.00 | 85 | 1013.6 |
| 20260507110435 | 47 | 26 | 5.0 | 9.0 | 0.00 | 0.00 | 0.00 | 85 | 1013.6 |
| 20260507110015 | 47 | 30 | 6.0 | 10.0 | 0.00 | 0.00 | 0.00 | 85 | 1013.6 |
| 20260507105836 | 47 | 33 | 5.0 | 10.0 | 0.00 | 0.00 | 0.00 | 85 | 1013.6 |
| 20260507105459 | 47 | 24 | 5.0 | 10.0 | 0.00 | 0.00 | 0.00 | 85 | 1013.6 |
| 20260507105115 | 47 | 33 | 6.0 | 11.0 | 0.00 | 0.00 | 0.00 | 85 | 1013.6 |
| 20260507104816 | 47 | 36 | 5.0 | 9.0 | 0.00 | 0.00 | 0.00 | 85 | 1013.6 |
| 20260507104515 | 47 | 29 | 5.0 | 10.0 | 0.00 | 0.00 | 0.00 | 85 | 1013.6 |
| 20260507104219 | 47 | 30 | 3.0 | 7.0 | 0.00 | 0.00 | 0.00 | 85 | 1013.6 |
| 20260507103916 | 47 | 22 | 3.0 | 7.0 | 0.00 | 0.00 | 0.00 | 85 | 1013.6 |
| 20260507103616 | 47 | 34 | 4.0 | 7.0 | 0.00 | 0.00 | 0.00 | 85 | 1013.6 |
| 20260507103356 | 47 | 34 | 4.0 | 10.0 | 0.00 | 0.00 | 0.00 | 85 | 1013.6 |
| 20260507103055 | 47 | 20 | 3.0 | 6.0 | 0.00 | 0.00 | 0.00 | 85 | 1013.5 |
| 20260507102756 | 47 | 30 | 4.0 | 9.0 | 0.00 | 0.00 | 0.00 | 85 | 1013.5 |
| 20260507102415 | 47 | 24 | 5.0 | 9.0 | 0.00 | 0.00 | 0.00 | 84 | 1013.5 |
| 20260507102116 | 47 | 29 | 4.0 | 9.0 | 0.00 | 0.00 | 0.00 | 84 | 1013.4 |
| 20260507101818 | 47 | 22 | 4.0 | 7.0 | 0.00 | 0.00 | 0.00 | 84 | 1013.4 |
| 20260507101517 | 47 | 19 | 5.0 | 9.0 | 0.00 | 0.00 | 0.00 | 84 | 1013.4 |
| 20260507101256 | 47 | 21 | 4.0 | 10.0 | 0.00 | 0.00 | 0.00 | 84 | 1013.3 |
| 20260507100915 | 48 | 19 | 4.0 | 9.0 | 0.00 | 0.00 | 0.00 | 84 | 1013.3 |
| 20260507100619 | 48 | 19 | 4.0 | 7.0 | 0.00 | 0.00 | 0.00 | 83 | 1013.3 |
| 20260507100315 | 48 | 29 | 3.0 | 7.0 | 0.00 | 0.00 | 0.00 | 83 | 1013.3 |
| 20260507100016 | 48 | 32 | 3.0 | 8.0 | 0.00 | 0.00 | 0.00 | 82 | 1013.2 |
| 20260507095756 | 48 | 49 | 4.0 | 9.0 | 0.00 | 0.00 | 0.00 | 82 | 1013.1 |
| 20260507095459 | 48 | 47 | 5.0 | 10.0 | 0.00 | 0.00 | 0.00 | 82 | 1013.1 |
| 20260507095116 | 48 | 70 | 4.0 | 11.0 | 0.00 | 0.00 | 0.00 | 82 | 1013.1 |
| 20260507094816 | 48 | 45 | 4.0 | 8.0 | 0.00 | 0.00 | 0.00 | 82 | 1013.0 |
| 20260507094516 | 48 | 30 | 5.0 | 10.0 | 0.00 | 0.00 | 0.00 | 82 | 1013.0 |
| 20260507094215 | 47 | 34 | 5.0 | 12.0 | 0.00 | 0.00 | 0.00 | 82 | 1013.0 |
| 20260507093916 | 48 | 49 | 8.0 | 12.0 | 0.00 | 0.00 | 0.00 | 82 | 1013.0 |
| 20260507093615 | 48 | 49 | 6.0 | 11.0 | 0.00 | 0.00 | 0.00 | 83 | 1012.9 |
| 20260507093356 | 48 | 54 | 5.0 | 10.0 | 0.00 | 0.00 | 0.00 | 83 | 1012.8 |
| 20260507093019 | 48 | 49 | 3.0 | 7.0 | 0.00 | 0.00 | 0.00 | 83 | 1012.8 |
| 20260507092756 | 47 | 51 | 4.0 | 9.0 | 0.00 | 0.00 | 0.00 | 83 | 1012.7 |
| 20260507092416 | 47 | 35 | 6.0 | 11.0 | 0.00 | 0.00 | 0.00 | 83 | 1012.7 |
| 20260507092115 | 47 | 50 | 6.0 | 10.0 | 0.00 | 0.00 | 0.00 | 83 | 1012.7 |
| 20260507091856 | 47 | 38 | 6.0 | 11.0 | 0.00 | 0.00 | 0.00 | 83 | 1012.6 |
| 20260507091516 | 47 | 46 | 5.0 | 12.0 | 0.00 | 0.00 | 0.00 | 84 | 1012.6 |
| 20260507091216 | 47 | 38 | 4.0 | 9.0 | 0.00 | 0.00 | 0.00 | 84 | 1012.6 |
| 20260507090916 | 47 | 33 | 5.0 | 11.0 | 0.00 | 0.00 | 0.00 | 84 | 1012.5 |
| 20260507090656 | 47 | 44 | 6.0 | 10.0 | 0.00 | 0.00 | 0.00 | 84 | 1012.5 |
| 20260507090356 | 47 | 27 | 4.0 | 9.0 | 0.00 | 0.00 | 0.00 | 84 | 1012.5 |
| 20260507090015 | 47 | 31 | 5.0 | 10.0 | 0.00 | 0.00 | 0.00 | 83 | 1012.4 |
| 20260507085756 | 47 | 41 | 4.0 | 10.0 | 0.00 | 0.00 | 0.00 | 83 | 1012.4 |
| 20260507085415 | 47 | 46 | 6.0 | 11.0 | 0.00 | 0.00 | 0.00 | 83 | 1012.4 |
| 20260507085116 | 47 | 50 | 5.0 | 9.0 | 0.00 | 0.00 | 0.00 | 83 | 1012.4 |
| 20260507084816 | 47 | 57 | 4.0 | 11.0 | 0.00 | 0.00 | 0.00 | 84 | 1012.3 |
| 20260507084516 | 47 | 34 | 3.0 | 10.0 | 0.00 | 0.00 | 0.00 | 84 | 1012.3 |
| 20260507084215 | 47 | 33 | 5.0 | 12.0 | 0.00 | 0.00 | 0.00 | 84 | 1012.2 |
| 20260507083915 | 47 | 44 | 5.0 | 9.0 | 0.00 | 0.00 | 0.00 | 84 | 1012.2 |
| 20260507083616 | 47 | 36 | 5.0 | 10.0 | 0.00 | 0.00 | 0.00 | 84 | 1012.2 |
| 20260507083359 | 47 | 36 | 6.0 | 13.0 | 0.00 | 0.00 | 0.00 | 84 | 1012.2 |
| 20260507083056 | 47 | 33 | 5.0 | 13.0 | 0.00 | 0.00 | 0.00 | 83 | 1012.2 |
| 20260507082756 | 47 | 31 | 6.0 | 13.0 | 0.00 | 0.00 | 0.00 | 83 | 1012.1 |
| 20260507082459 | 47 | 38 | 5.0 | 9.0 | 0.00 | 0.01 | 0.00 | 83 | 1012.1 |
| 20260507082116 | 47 | 41 | 6.0 | 12.0 | 0.00 | 0.01 | 0.00 | 83 | 1012.0 |
| 20260507081815 | 47 | 33 | 6.0 | 11.0 | 0.00 | 0.01 | 0.00 | 83 | 1012.0 |
| 20260507081516 | 47 | 45 | 6.0 | 11.0 | 0.00 | 0.01 | 0.00 | 83 | 1012.0 |
| 20260507081256 | 47 | 31 | 6.0 | 16.0 | 0.00 | 0.01 | 0.00 | 84 | 1011.9 |
| 20260507080916 | 47 | 50 | 8.0 | 13.0 | 0.00 | 0.01 | 0.00 | 84 | 1011.8 |
| 20260507080656 | 46 | 48 | 7.0 | 12.0 | 0.00 | 0.01 | 0.00 | 84 | 1011.9 |
| 20260507080319 | 46 | 48 | 7.0 | 11.0 | 0.00 | 0.01 | 0.00 | 84 | 1011.8 |
| 20260507080016 | 46 | 47 | 7.0 | 13.0 | 0.00 | 0.01 | 0.00 | 85 | 1011.8 |
| 20260507075715 | 46 | 41 | 6.0 | 10.0 | 0.00 | 0.02 | 0.00 | 85 | 1011.8 |
| 20260507075419 | 46 | 38 | 3.0 | 11.0 | 0.00 | 0.02 | 0.00 | 85 | 1011.8 |
| 20260507075116 | 46 | 36 | 6.0 | 10.0 | 0.00 | 0.02 | 0.00 | 85 | 1011.8 |
| 20260507074816 | 46 | 22 | 5.0 | 10.0 | 0.00 | 0.02 | 0.00 | 85 | 1011.7 |
| 20260507074516 | 46 | 42 | 5.0 | 11.0 | 0.00 | 0.02 | 0.00 | 85 | 1011.6 |
| 20260507074256 | 46 | 41 | 6.0 | 11.0 | 0.00 | 0.02 | 0.00 | 85 | 1011.6 |
| 20260507073956 | 46 | 39 | 6.0 | 12.0 | 0.00 | 0.02 | 0.00 | 85 | 1011.6 |
| 20260507073655 | 46 | 40 | 5.0 | 11.0 | 0.00 | 0.02 | 0.00 | 86 | 1011.6 |
| 20260507073316 | 46 | 35 | 6.0 | 10.0 | 0.00 | 0.02 | 0.00 | 86 | 1011.6 |
| 20260507073016 | 46 | 37 | 6.0 | 10.0 | 0.00 | 0.02 | 0.00 | 86 | 1011.5 |
| 20260507072716 | 46 | 40 | 5.0 | 9.0 | 0.00 | 0.02 | 0.00 | 86 | 1011.5 |
| 20260507072416 | 46 | 20 | 5.0 | 13.0 | 0.00 | 0.02 | 0.00 | 86 | 1011.4 |
| 20260507072159 | 46 | 27 | 5.0 | 12.0 | 0.00 | 0.02 | 0.00 | 86 | 1011.3 |
| 20260507071816 | 46 | 23 | 5.0 | 10.0 | 0.00 | 0.02 | 0.00 | 86 | 1011.3 |
| 20260507071515 | 46 | 35 | 6.0 | 10.0 | 0.00 | 0.02 | 0.00 | 86 | 1011.3 |
| 20260507071216 | 46 | 27 | 5.0 | 11.0 | 0.00 | 0.02 | 0.00 | 86 | 1011.3 |
| 20260507070915 | 46 | 27 | 6.0 | 12.0 | 0.00 | 0.02 | 0.00 | 86 | 1011.2 |
| 20260507070616 | 46 | 28 | 5.0 | 10.0 | 0.00 | 0.02 | 0.00 | 87 | 1011.2 |
| 20260507070316 | 46 | 26 | 6.0 | 13.0 | 0.00 | 0.02 | 0.00 | 87 | 1011.2 |
| 20260507070016 | 46 | 32 | 7.0 | 12.0 | 0.00 | 0.02 | 0.00 | 87 | 1011.2 |
| 20260507065716 | 46 | 41 | 6.0 | 12.0 | 0.00 | 0.02 | 0.00 | 87 | 1011.1 |
| 20260507065415 | 46 | 40 | 6.0 | 12.0 | 0.00 | 0.02 | 0.00 | 88 | 1011.1 |
| 20260507065116 | 46 | 20 | 6.0 | 12.0 | 0.00 | 0.02 | 0.00 | 87 | 1011.1 |
| 20260507064815 | 46 | 25 | 5.0 | 10.0 | 0.00 | 0.02 | 0.00 | 88 | 1011.1 |
| 20260507064516 | 46 | 30 | 8.0 | 15.0 | 0.00 | 0.02 | 0.00 | 88 | 1011.1 |
| 20260507064256 | 46 | 28 | 6.0 | 14.0 | 0.00 | 0.02 | 0.00 | 88 | 1011.1 |
| 20260507063916 | 46 | 30 | 7.0 | 12.0 | 0.00 | 0.02 | 0.00 | 88 | 1011.0 |
| 20260507063656 | 46 | 32 | 7.0 | 16.0 | 0.00 | 0.02 | 0.00 | 88 | 1011.0 |
| 20260507063315 | 46 | 35 | 6.0 | 12.0 | 0.00 | 0.02 | 0.00 | 88 | 1011.0 |
| 20260507063016 | 45 | 37 | 7.0 | 13.0 | 0.00 | 0.02 | 0.00 | 88 | 1010.9 |
| 20260507062716 | 45 | 37 | 6.0 | 15.0 | 0.00 | 0.02 | 0.00 | 89 | 1010.8 |
| 20260507062416 | 45 | 26 | 6.0 | 14.0 | 0.00 | 0.02 | 0.00 | 88 | 1010.8 |
| 20260507062116 | 45 | 21 | 8.0 | 13.0 | 0.00 | 0.02 | 0.00 | 89 | 1010.9 |
| 20260507061936 | 45 | 31 | 4.0 | 11.0 | 0.00 | 0.02 | 0.00 | 89 | 1010.8 |
| 20260507061516 | 45 | 26 | 4.0 | 10.0 | 0.00 | 0.02 | 0.00 | 89 | 1010.8 |
| 20260507061338 | 45 | 21 | 6.0 | 11.0 | 0.00 | 0.02 | 0.00 | 89 | 1010.7 |
| 20260507060916 | 45 | 28 | 6.0 | 13.0 | 0.00 | 0.02 | 0.00 | 89 | 1010.7 |
| 20260507060615 | 45 | 29 | 6.0 | 12.0 | 0.00 | 0.02 | 0.00 | 89 | 1010.7 |
| 20260507060316 | 45 | 37 | 6.0 | 10.0 | 0.00 | 0.02 | 0.00 | 89 | 1010.7 |
| 20260507060016 | 45 | 24 | 4.0 | 10.0 | 0.00 | 0.02 | 0.00 | 89 | 1010.7 |
| 20260507055756 | 45 | 22 | 5.0 | 12.0 | 0.00 | 0.02 | 0.00 | 89 | 1010.6 |
| 20260507055416 | 45 | 31 | 4.0 | 10.0 | 0.00 | 0.02 | 0.00 | 89 | 1010.6 |
| 20260507055116 | 45 | 28 | 5.0 | 11.0 | 0.00 | 0.02 | 0.00 | 89 | 1010.6 |
| 20260507054816 | 45 | 29 | 6.0 | 11.0 | 0.00 | 0.02 | 0.00 | 88 | 1010.5 |
| 20260507054515 | 45 | 18 | 6.0 | 10.0 | 0.00 | 0.02 | 0.00 | 88 | 1010.5 |
| 20260507054336 | 45 | 17 | 6.0 | 11.0 | 0.00 | 0.02 | 0.00 | 88 | 1010.5 |
| 20260507053916 | 45 | 17 | 7.0 | 12.0 | 0.00 | 0.02 | 0.00 | 88 | 1010.4 |
| 20260507053616 | 45 | 24 | 5.0 | 9.0 | 0.00 | 0.02 | 0.00 | 88 | 1010.4 |
| 20260507053316 | 45 | 22 | 5.0 | 12.0 | 0.00 | 0.03 | 0.00 | 88 | 1010.4 |
| 20260507053016 | 45 | 26 | 5.0 | 9.0 | 0.00 | 0.03 | 0.00 | 88 | 1010.3 |
| 20260507052716 | 45 | 23 | 6.0 | 12.0 | 0.00 | 0.03 | 0.00 | 88 | 1010.3 |
| 20260507052458 | 45 | 23 | 6.0 | 10.0 | 0.00 | 0.03 | 0.00 | 88 | 1010.3 |
| 20260507052116 | 45 | 14 | 4.0 | 9.0 | 0.00 | 0.04 | 0.00 | 88 | 1010.2 |
| 20260507051816 | 45 | 18 | 4.0 | 8.0 | 0.00 | 0.04 | 0.00 | 88 | 1010.2 |
| 20260507051517 | 45 | 25 | 6.0 | 15.0 | 0.00 | 0.04 | 0.00 | 88 | 1010.2 |
| 20260507051256 | 45 | 36 | 5.0 | 10.0 | 0.00 | 0.04 | 0.00 | 88 | 1010.2 |
| 20260507050916 | 45 | 28 | 5.0 | 10.0 | 0.00 | 0.04 | 0.00 | 88 | 1010.1 |
| 20260507050616 | 45 | 21 | 4.0 | 9.0 | 0.00 | 0.05 | 0.00 | 88 | 1010.1 |
| 20260507050315 | 45 | 31 | 3.0 | 9.0 | 0.00 | 0.05 | 0.00 | 88 | 1010.1 |
| 20260507050016 | 45 | 34 | 5.0 | 10.0 | 0.00 | 0.06 | 0.00 | 88 | 1010.1 |
| 20260507045716 | 45 | 35 | 5.0 | 11.0 | 0.00 | 0.06 | 0.00 | 88 | 1010.1 |
| 20260507045416 | 45 | 35 | 4.0 | 9.0 | 0.00 | 0.06 | 0.00 | 88 | 1010.1 |
| 20260507045159 | 45 | 32 | 4.0 | 12.0 | 0.00 | 0.06 | 0.00 | 88 | 1010.0 |
| 20260507044815 | 45 | 36 | 4.0 | 10.0 | 0.00 | 0.07 | 0.00 | 88 | 1010.0 |
| 20260507044516 | 45 | 31 | 4.0 | 7.0 | 0.00 | 0.07 | 0.00 | 88 | 1009.9 |
| 20260507044215 | 45 | 32 | 4.0 | 9.0 | 0.00 | 0.08 | 0.00 | 88 | 1009.9 |
| 20260507043916 | 45 | 37 | 4.0 | 8.0 | 0.00 | 0.08 | 0.00 | 88 | 1009.8 |
| 20260507043618 | 45 | 29 | 6.0 | 11.0 | 0.00 | 0.09 | 0.00 | 88 | 1009.8 |
| 20260507043316 | 45 | 29 | 6.0 | 13.0 | 0.00 | 0.09 | 0.00 | 88 | 1009.7 |
| 20260507043019 | 45 | 31 | 3.0 | 8.0 | 0.00 | 0.10 | 0.00 | 88 | 1009.7 |
| 20260507042756 | 45 | 33 | 3.0 | 7.0 | 0.00 | 0.11 | 0.00 | 88 | 1009.7 |
| 20260507042418 | 45 | 22 | 2.0 | 6.0 | 0.00 | 0.12 | 0.00 | 88 | 1009.6 |
| 20260507042115 | 45 | 30 | 4.0 | 8.0 | 0.00 | 0.12 | 0.00 | 87 | 1009.6 |
| 20260507041816 | 45 | 34 | 5.0 | 11.0 | 0.00 | 0.12 | 0.00 | 88 | 1009.6 |
| 20260507041516 | 45 | 17 | 2.0 | 5.0 | 0.00 | 0.12 | 0.00 | 87 | 1009.6 |
| 20260507041216 | 45 | 13 | 3.0 | 7.0 | 0.00 | 0.13 | 0.00 | 87 | 1009.5 |
| 20260507040916 | 45 | 42 | 4.0 | 8.0 | 0.00 | 0.13 | 0.00 | 87 | 1009.5 |
| 20260507040656 | 45 | 24 | 4.0 | 7.0 | 0.00 | 0.13 | 0.00 | 87 | 1009.6 |
| 20260507040316 | 45 | 15 | 5.0 | 9.0 | 0.00 | 0.13 | 0.00 | 87 | 1009.5 |
| 20260507040135 | 45 | 30 | 3.0 | 7.0 | 0.00 | 0.13 | 0.00 | 87 | 1009.4 |
| 20260507035716 | 45 | 25 | 4.0 | 10.0 | 0.00 | 0.13 | 0.00 | 87 | 1009.4 |
| 20260507035456 | 45 | 19 | 5.0 | 9.0 | 0.00 | 0.13 | 0.00 | 87 | 1009.3 |
| 20260507035116 | 45 | 33 | 4.0 | 8.0 | 0.00 | 0.13 | 0.00 | 87 | 1009.3 |
| 20260507034816 | 45 | 19 | 5.0 | 11.0 | 0.00 | 0.13 | 0.00 | 87 | 1009.3 |
| 20260507034516 | 45 | 19 | 4.0 | 12.0 | 0.00 | 0.13 | 0.00 | 87 | 1009.4 |
| 20260507034216 | 45 | 14 | 6.0 | 12.0 | 0.00 | 0.13 | 0.00 | 87 | 1009.4 |
| 20260507033915 | 45 | 26 | 3.0 | 7.0 | 0.00 | 0.13 | 0.00 | 87 | 1009.4 |
| 20260507033616 | 45 | 38 | 4.0 | 10.0 | 0.00 | 0.13 | 0.00 | 87 | 1009.4 |
| 20260507033359 | 45 | 32 | 4.0 | 11.0 | 0.00 | 0.13 | 0.00 | 87 | 1009.3 |
| 20260507033016 | 45 | 39 | 5.0 | 10.0 | 0.00 | 0.13 | 0.00 | 87 | 1009.3 |
| 20260507032716 | 45 | 37 | 3.0 | 7.0 | 0.00 | 0.13 | 0.00 | 87 | 1009.3 |
| 20260507032416 | 45 | 41 | 5.0 | 9.0 | 0.00 | 0.13 | 0.00 | 87 | 1009.4 |
| 20260507032116 | 45 | 32 | 5.0 | 9.0 | 0.00 | 0.13 | 0.00 | 87 | 1009.4 |
| 20260507031815 | 45 | 24 | 3.0 | 10.0 | 0.00 | 0.13 | 0.00 | 87 | 1009.4 |
| 20260507031516 | 45 | 44 | 4.0 | 8.0 | 0.00 | 0.13 | 0.00 | 87 | 1009.4 |
| 20260507031259 | 45 | 47 | 3.0 | 5.0 | 0.00 | 0.13 | 0.00 | 87 | 1009.3 |
| 20260507030956 | 45 | 41 | 4.0 | 8.0 | 0.00 | 0.13 | 0.00 | 87 | 1009.3 |
| 20260507030616 | 45 | 33 | 4.0 | 10.0 | 0.00 | 0.13 | 0.00 | 87 | 1009.4 |
| 20260507030316 | 45 | 16 | 3.0 | 9.0 | 0.00 | 0.13 | 0.00 | 87 | 1009.4 |
| 20260507030019 | 45 | 32 | 4.0 | 8.0 | 0.00 | 0.13 | 0.00 | 87 | 1009.4 |
| 20260507025715 | 45 | 21 | 4.0 | 9.0 | 0.00 | 0.13 | 0.00 | 87 | 1009.4 |
| 20260507025416 | 45 | 23 | 5.0 | 10.0 | 0.00 | 0.13 | 0.00 | 87 | 1009.3 |
| 20260507025116 | 45 | 29 | 4.0 | 7.0 | 0.00 | 0.13 | 0.00 | 87 | 1009.3 |
| 20260507024819 | 45 | 27 | 3.0 | 7.0 | 0.00 | 0.13 | 0.00 | 87 | 1009.3 |
| 20260507024515 | 45 | 33 | 4.0 | 7.0 | 0.00 | 0.13 | 0.00 | 87 | 1009.4 |
| 20260507024216 | 45 | 22 | 5.0 | 8.0 | 0.00 | 0.13 | 0.00 | 87 | 1009.4 |
| 20260507023916 | 45 | 11 | 4.0 | 7.0 | 0.00 | 0.14 | 0.00 | 87 | 1009.4 |
| 20260507023615 | 45 | 20 | 3.0 | 9.0 | 0.00 | 0.14 | 0.00 | 87 | 1009.3 |
| 20260507023316 | 45 | 17 | 5.0 | 10.0 | 0.00 | 0.14 | 0.00 | 87 | 1009.3 |
| 20260507023016 | 45 | 20 | 4.0 | 8.0 | 0.00 | 0.15 | 0.00 | 87 | 1009.4 |
| 20260507022718 | 45 | 21 | 3.0 | 8.0 | 0.00 | 0.16 | 0.00 | 87 | 1009.3 |
| 20260507022415 | 45 | 16 | 4.0 | 7.0 | 0.00 | 0.16 | 0.00 | 87 | 1009.4 |
| 20260507022116 | 45 | 18 | 3.0 | 9.0 | 0.00 | 0.16 | 0.00 | 87 | 1009.3 |
| 20260507021816 | 45 | 17 | 3.0 | 6.0 | 0.00 | 0.17 | 0.00 | 87 | 1009.3 |
| 20260507021515 | 45 | 12 | 4.0 | 7.0 | 0.00 | 0.17 | 0.00 | 87 | 1009.3 |
| 20260507021219 | 45 | 12 | 4.0 | 7.0 | 0.00 | 0.19 | 0.00 | 87 | 1009.2 |
| 20260507020916 | 45 | 10 | 4.0 | 9.0 | 0.00 | 0.20 | 0.00 | 87 | 1009.3 |
| 20260507020616 | 45 | 10 | 4.0 | 10.0 | 0.00 | 0.20 | 0.00 | 87 | 1009.2 |
| 20260507020331 | 45 | 6 | 4.0 | 8.0 | 0.00 | 0.22 | 0.00 | 87 | 1009.2 |
| 20260507020016 | 45 | 19 | 4.0 | 7.0 | 0.00 | 0.23 | 0.00 | 87 | 1009.2 |
| 20260507015716 | 45 | 14 | 5.0 | 10.0 | 0.00 | 0.24 | 0.00 | 87 | 1009.1 |
| 20260507015416 | 45 | 25 | 5.0 | 9.0 | 0.00 | 0.25 | 0.00 | 87 | 1009.1 |
| 20260507015116 | 45 | 20 | 3.0 | 9.0 | 0.00 | 0.26 | 0.00 | 87 | 1009.2 |
| 20260507014816 | 45 | 15 | 4.0 | 9.0 | 0.00 | 0.28 | 0.00 | 87 | 1009.2 |
| 20260507014516 | 45 | 13 | 4.0 | 8.0 | 0.00 | 0.29 | 0.00 | 87 | 1009.2 |
| 20260507014215 | 45 | 10 | 4.0 | 9.0 | 0.00 | 0.30 | 0.00 | 87 | 1009.2 |
| 20260507013956 | 45 | 15 | 4.0 | 7.0 | 0.00 | 0.31 | 0.00 | 87 | 1009.1 |
| 20260507013616 | 45 | 28 | 5.0 | 11.0 | 0.00 | 0.32 | 0.00 | 87 | 1009.1 |
| 20260507013316 | 45 | 19 | 5.0 | 10.0 | 0.00 | 0.33 | 0.00 | 87 | 1009.0 |
| 20260507013016 | 45 | 30 | 4.0 | 8.0 | 0.00 | 0.34 | 0.00 | 87 | 1009.0 |
| 20260507012716 | 45 | 14 | 5.0 | 10.0 | 0.00 | 0.34 | 0.00 | 87 | 1008.9 |
| 20260507012419 | 45 | 25 | 4.0 | 9.0 | 0.00 | 0.35 | 0.00 | 87 | 1008.9 |
| 20260507012115 | 45 | 18 | 6.0 | 13.0 | 0.00 | 0.35 | 0.00 | 87 | 1008.8 |
| 20260507011816 | 45 | 26 | 6.0 | 13.0 | 0.00 | 0.37 | 0.00 | 87 | 1008.7 |
| 20260507011556 | 45 | 30 | 4.0 | 8.0 | 0.00 | 0.39 | 0.00 | 87 | 1008.7 |
| 20260507010916 | 45 | 34 | 4.0 | 7.0 | 0.00 | 0.41 | 0.00 | 87 | 1008.7 |
| 20260507010619 | 45 | 14 | 4.0 | 9.0 | 0.00 | 0.43 | 0.00 | 87 | 1008.7 |
| 20260507010316 | 45 | 24 | 5.0 | 11.0 | 0.00 | 0.45 | 0.00 | 87 | 1008.6 |
| 20260507010016 | 45 | 7 | 3.0 | 6.0 | 0.00 | 0.46 | 0.00 | 87 | 1008.6 |
| 20260507005716 | 45 | 29 | 5.0 | 10.0 | 0.00 | 0.46 | 0.00 | 87 | 1008.5 |
| 20260507005428 | 46 | 23 | 4.0 | 16.0 | 0.00 | 0.46 | 0.00 | 87 | 1008.4 |
| 20260507005116 | 46 | 18 | 4.0 | 8.0 | 0.00 | 0.47 | 0.00 | 87 | 1008.4 |
| 20260507004816 | 46 | 29 | 3.0 | 6.0 | 0.00 | 0.47 | 0.00 | 87 | 1008.4 |
| 20260507004516 | 46 | 35 | 4.0 | 9.0 | 0.00 | 0.47 | 0.00 | 87 | 1008.5 |
| 20260507004216 | 46 | 15 | 4.0 | 8.0 | 0.00 | 0.47 | 0.00 | 87 | 1008.6 |
| 20260507003956 | 46 | 18 | 4.0 | 9.0 | 0.00 | 0.47 | 0.00 | 87 | 1008.6 |
| 20260507003616 | 46 | 27 | 4.0 | 8.0 | 0.00 | 0.47 | 0.00 | 88 | 1008.6 |
| 20260507003316 | 46 | 30 | 4.0 | 10.0 | 0.00 | 0.47 | 0.00 | 88 | 1008.6 |
| 20260507003015 | 46 | 30 | 3.0 | 8.0 | 0.00 | 0.47 | 0.00 | 88 | 1008.5 |
| 20260507002716 | 45 | 0 | 1.0 | 6.0 | 0.00 | 0.47 | 0.00 | 88 | 1008.4 |
| 20260507002416 | 46 | 21 | 5.0 | 10.0 | 0.00 | 0.47 | 0.00 | 88 | 1008.3 |
| 20260507002116 | 46 | 29 | 6.0 | 11.0 | 0.00 | 0.47 | 0.00 | 88 | 1008.3 |
| 20260507001815 | 46 | 28 | 5.0 | 9.0 | 0.00 | 0.48 | 0.00 | 88 | 1008.4 |
| 20260507001516 | 46 | 33 | 4.0 | 8.0 | 0.00 | 0.48 | 0.00 | 88 | 1008.5 |
| 20260507001216 | 46 | 45 | 4.0 | 9.0 | 0.00 | 0.49 | 0.00 | 88 | 1008.6 |
| 20260507000919 | 46 | 28 | 3.0 | 7.0 | 0.00 | 0.49 | 0.00 | 88 | 1008.6 |
| 20260507000615 | 46 | 26 | 6.0 | 12.0 | 0.00 | 0.49 | 0.00 | 88 | 1008.5 |
| 20260507000316 | 46 | 29 | 4.0 | 10.0 | 0.00 | 0.50 | 0.00 | 88 | 1008.6 |
| 20260507000056 | 46 | 25 | 3.0 | 10.0 | 0.00 | 0.50 | 0.00 | 88 | 1008.5 |
| 20260506235719 | 46 | 25 | 6.0 | 11.0 | 0.00 | 0.50 | 0.00 | 88 | 1008.4 |
| 20260506235416 | 46 | 13 | 5.0 | 11.0 | 0.00 | 0.52 | 0.00 | 88 | 1008.4 |
| 20260506235156 | 46 | 17 | 6.0 | 11.0 | 0.00 | 0.54 | 0.00 | 88 | 1008.4 |
| 20260506234816 | 46 | 13 | 5.0 | 13.0 | 0.00 | 0.54 | 0.00 | 88 | 1008.4 |
| 20260506234516 | 46 | 12 | 7.0 | 14.0 | 0.00 | 0.56 | 0.00 | 88 | 1008.5 |
| 20260506234216 | 46 | 6 | 9.0 | 14.0 | 0.00 | 0.57 | 0.00 | 88 | 1008.4 |
| 20260506233916 | 46 | 7 | 7.0 | 14.0 | 0.00 | 0.58 | 0.00 | 87 | 1008.5 |
| 20260506233615 | 47 | 3 | 5.0 | 12.0 | 0.00 | 0.60 | 0.00 | 88 | 1008.5 |
| 20260506233359 | 47 | 15 | 5.0 | 10.0 | 0.00 | 0.60 | 0.00 | 87 | 1008.5 |
| 20260506233016 | 47 | 20 | 5.0 | 9.0 | 0.00 | 0.61 | 0.00 | 87 | 1008.5 |
| 20260506232716 | 47 | 11 | 7.0 | 14.0 | 0.00 | 0.61 | 0.00 | 87 | 1008.4 |
| 20260506232416 | 47 | 8 | 7.0 | 16.0 | 0.00 | 0.61 | 0.00 | 87 | 1008.4 |
| 20260506232116 | 47 | 24 | 6.0 | 11.0 | 0.00 | 0.61 | 0.00 | 87 | 1008.3 |
| 20260506231856 | 47 | 38 | 5.0 | 12.0 | 0.00 | 0.61 | 0.00 | 87 | 1008.3 |
| 20260506231515 | 47 | 22 | 5.0 | 10.0 | 0.00 | 0.61 | 0.00 | 87 | 1008.2 |
| 20260506231216 | 47 | 26 | 5.0 | 13.0 | 0.00 | 0.61 | 0.00 | 87 | 1008.2 |
| 20260506230936 | 48 | 33 | 8.0 | 15.0 | 0.00 | 0.61 | 0.00 | 87 | 1008.2 |
| 20260506230316 | 48 | 33 | 7.0 | 11.0 | 0.00 | 0.61 | 0.00 | 87 | 1008.2 |
| 20260506230016 | 48 | 21 | 4.0 | 9.0 | 0.00 | 0.61 | 0.00 | 87 | 1008.2 |
| 20260506225716 | 48 | 36 | 6.0 | 11.0 | 0.00 | 0.61 | 0.00 | 87 | 1008.2 |
| 20260506225415 | 48 | 34 | 6.0 | 13.0 | 0.00 | 0.61 | 0.00 | 87 | 1008.2 |
| 20260506225116 | 48 | 35 | 4.0 | 7.0 | 0.00 | 0.61 | 0.00 | 87 | 1008.1 |
| 20260506224816 | 48 | 35 | 7.0 | 13.0 | 0.00 | 0.61 | 0.00 | 87 | 1008.1 |
| 20260506224516 | 48 | 33 | 5.0 | 9.0 | 0.00 | 0.61 | 0.00 | 87 | 1008.2 |
| 20260506224216 | 48 | 42 | 6.0 | 12.0 | 0.00 | 0.61 | 0.00 | 87 | 1008.2 |
| 20260506223917 | 48 | 32 | 4.0 | 8.0 | 0.00 | 0.61 | 0.00 | 87 | 1008.1 |
| 20260506223619 | 49 | 31 | 6.0 | 11.0 | 0.00 | 0.61 | 0.00 | 87 | 1008.0 |
| 20260506223315 | 49 | 19 | 4.0 | 9.0 | 0.00 | 0.61 | 0.00 | 86 | 1008.0 |
| 20260506223019 | 49 | 30 | 5.0 | 10.0 | 0.00 | 0.61 | 0.00 | 86 | 1008.0 |
| 20260506222715 | 49 | 29 | 6.0 | 10.0 | 0.00 | 0.61 | 0.00 | 86 | 1007.9 |
| 20260506222416 | 49 | 28 | 5.0 | 10.0 | 0.00 | 0.61 | 0.00 | 86 | 1007.9 |
| 20260506222115 | 49 | 20 | 6.0 | 11.0 | 0.00 | 0.61 | 0.00 | 86 | 1007.8 |
| 20260506221856 | 49 | 27 | 5.0 | 12.0 | 0.00 | 0.61 | 0.00 | 87 | 1007.7 |
| 20260506221516 | 49 | 24 | 3.0 | 7.0 | 0.00 | 0.61 | 0.00 | 86 | 1007.7 |
| 20260506221215 | 49 | 34 | 4.0 | 11.0 | 0.00 | 0.61 | 0.00 | 86 | 1007.6 |
| 20260506220955 | 49 | 33 | 6.0 | 10.0 | 0.00 | 0.61 | 0.00 | 86 | 1007.6 |
| 20260506220616 | 49 | 19 | 3.0 | 6.0 | 0.00 | 0.61 | 0.00 | 86 | 1007.6 |
| 20260506220316 | 49 | 28 | 4.0 | 9.0 | 0.00 | 0.61 | 0.00 | 86 | 1007.6 |
| 20260506220019 | 49 | 28 | 7.0 | 14.0 | 0.00 | 0.61 | 0.00 | 86 | 1007.6 |
| 20260506215716 | 49 | 29 | 6.0 | 10.0 | 0.00 | 0.61 | 0.61 | 86 | 1007.7 |
| 20260506215456 | 49 | 28 | 5.0 | 10.0 | 0.00 | 0.61 | 0.61 | 87 | 1007.7 |
| 20260506215115 | 49 | 30 | 4.0 | 12.0 | 0.00 | 0.61 | 0.61 | 87 | 1007.7 |
| 20260506214816 | 49 | 30 | 5.0 | 10.0 | 0.00 | 0.61 | 0.61 | 87 | 1007.7 |
| 20260506214516 | 49 | 21 | 5.0 | 10.0 | 0.00 | 0.61 | 0.61 | 87 | 1007.7 |
| 20260506214216 | 49 | 48 | 2.0 | 7.0 | 0.00 | 0.61 | 0.61 | 87 | 1007.7 |
| 20260506213919 | 49 | 30 | 3.0 | 6.0 | 0.00 | 0.61 | 0.61 | 87 | 1007.7 |
| 20260506213616 | 49 | 35 | 3.0 | 7.0 | 0.00 | 0.61 | 0.61 | 87 | 1007.6 |
| 20260506213356 | 49 | 25 | 4.0 | 9.0 | 0.00 | 0.61 | 0.61 | 87 | 1007.6 |
| 20260506213015 | 49 | 14 | 4.0 | 8.0 | 0.00 | 0.61 | 0.61 | 87 | 1007.7 |
| 20260506212716 | 49 | 20 | 3.0 | 7.0 | 0.00 | 0.61 | 0.61 | 87 | 1007.7 |
| 20260506212416 | 49 | 3 | 2.0 | 6.0 | 0.00 | 0.61 | 0.61 | 87 | 1007.7 |
| 20260506212116 | 49 | 28 | 3.0 | 4.0 | 0.00 | 0.61 | 0.61 | 86 | 1007.7 |
| 20260506211922 | 49 | 36 | 1.0 | 3.0 | 0.00 | 0.61 | 0.61 | 86 | 1007.7 |
| 20260506211216 | 49 | 38 | 4.0 | 10.0 | 0.00 | 0.61 | 0.61 | 86 | 1007.6 |
| 20260506210915 | 49 | 33 | 4.0 | 8.0 | 0.00 | 0.61 | 0.61 | 86 | 1007.6 |
| 20260506210616 | 49 | 27 | 3.0 | 7.0 | 0.00 | 0.61 | 0.61 | 86 | 1007.6 |
| 20260506210356 | 49 | 38 | 3.0 | 8.0 | 0.00 | 0.61 | 0.61 | 86 | 1007.6 |
| 20260506210016 | 49 | 27 | 2.0 | 7.0 | 0.00 | 0.61 | 0.61 | 86 | 1007.7 |
| 20260506205716 | 49 | 25 | 2.0 | 5.0 | 0.00 | 0.61 | 0.61 | 86 | 1007.6 |
| 20260506205432 | 49 | 40 | 4.0 | 8.0 | 0.00 | 0.61 | 0.61 | 86 | 1007.5 |
| 20260506205116 | 49 | 33 | 4.0 | 9.0 | 0.00 | 0.61 | 0.61 | 86 | 1007.6 |
| 20260506204815 | 49 | 45 | 2.0 | 5.0 | 0.00 | 0.61 | 0.61 | 86 | 1007.6 |
| 20260506204516 | 49 | 48 | 3.0 | 7.0 | 0.00 | 0.61 | 0.61 | 86 | 1007.6 |
| 20260506204215 | 49 | 42 | 2.0 | 6.0 | 0.00 | 0.61 | 0.61 | 86 | 1007.7 |
| 20260506203917 | 49 | 51 | 2.0 | 4.0 | 0.00 | 0.61 | 0.61 | 86 | 1007.7 |
| 20260506203616 | 49 | 52 | 3.0 | 7.0 | 0.00 | 0.61 | 0.61 | 86 | 1007.7 |
| 20260506203316 | 49 | 60 | 3.0 | 6.0 | 0.00 | 0.61 | 0.61 | 86 | 1007.8 |
| 20260506203016 | 49 | 50 | 4.0 | 8.0 | 0.00 | 0.61 | 0.61 | 86 | 1007.7 |
| 20260506202715 | 50 | 46 | 4.0 | 9.0 | 0.00 | 0.61 | 0.61 | 86 | 1007.7 |
| 20260506202416 | 50 | 41 | 4.0 | 7.0 | 0.00 | 0.61 | 0.61 | 86 | 1007.7 |
| 20260506202115 | 50 | 41 | 5.0 | 9.0 | 0.00 | 0.61 | 0.61 | 87 | 1007.6 |
| 20260506201819 | 50 | 44 | 3.0 | 8.0 | 0.00 | 0.61 | 0.61 | 86 | 1007.5 |
| 20260506201516 | 50 | 22 | 4.0 | 9.0 | 0.00 | 0.61 | 0.61 | 86 | 1007.3 |
| 20260506201215 | 50 | 33 | 4.0 | 8.0 | 0.00 | 0.61 | 0.61 | 87 | 1007.3 |
| 20260506200959 | 50 | 36 | 5.0 | 9.0 | 0.00 | 0.61 | 0.61 | 87 | 1007.2 |
| 20260506200615 | 50 | 36 | 5.0 | 9.0 | 0.00 | 0.61 | 0.61 | 87 | 1007.2 |
| 20260506200316 | 50 | 35 | 5.0 | 11.0 | 0.00 | 0.61 | 0.61 | 87 | 1007.2 |
| 20260506200055 | 50 | 22 | 2.0 | 5.0 | 0.00 | 0.61 | 0.61 | 87 | 1007.2 |
| 20260506195716 | 50 | 25 | 4.0 | 7.0 | 0.00 | 0.61 | 0.61 | 87 | 1007.2 |
| 20260506195416 | 50 | 30 | 3.0 | 6.0 | 0.00 | 0.61 | 0.61 | 87 | 1007.1 |
| 20260506195116 | 50 | 38 | 3.0 | 8.0 | 0.00 | 0.61 | 0.61 | 87 | 1007.0 |
| 20260506194816 | 50 | 40 | 4.0 | 7.0 | 0.00 | 0.61 | 0.61 | 87 | 1007.0 |
| 20260506194515 | 50 | 29 | 3.0 | 8.0 | 0.00 | 0.61 | 0.61 | 87 | 1007.1 |
| 20260506194216 | 50 | 27 | 3.0 | 6.0 | 0.00 | 0.61 | 0.61 | 87 | 1007.1 |
| 20260506193918 | 50 | 38 | 3.0 | 4.0 | 0.00 | 0.61 | 0.61 | 86 | 1007.2 |
| 20260506193616 | 50 | 31 | 3.0 | 5.0 | 0.00 | 0.61 | 0.61 | 86 | 1007.2 |
| 20260506193316 | 50 | 19 | 3.0 | 7.0 | 0.00 | 0.61 | 0.61 | 86 | 1007.0 |
| 20260506193039 | 50 | 29 | 6.0 | 11.0 | 0.00 | 0.61 | 0.61 | 85 | 1007.0 |
| 20260506192415 | 51 | 23 | 4.0 | 8.0 | 0.00 | 0.61 | 0.61 | 85 | 1007.0 |
| 20260506192116 | 51 | 19 | 6.0 | 13.0 | 0.00 | 0.61 | 0.61 | 85 | 1007.0 |
| 20260506191818 | 51 | 18 | 5.0 | 10.0 | 0.00 | 0.61 | 0.61 | 86 | 1007.0 |
| 20260506191516 | 51 | 24 | 6.0 | 12.0 | 0.00 | 0.61 | 0.61 | 86 | 1007.0 |
| 20260506191216 | 51 | 25 | 5.0 | 11.0 | 0.00 | 0.61 | 0.61 | 86 | 1007.0 |
| 20260506190916 | 51 | 26 | 5.0 | 11.0 | 0.00 | 0.61 | 0.61 | 86 | 1007.1 |
| 20260506190659 | 51 | 22 | 5.0 | 10.0 | 0.00 | 0.61 | 0.61 | 86 | 1007.0 |
| 20260506190315 | 51 | 22 | 4.0 | 10.0 | 0.00 | 0.61 | 0.61 | 87 | 1007.1 |
| 20260506190016 | 51 | 23 | 5.0 | 11.0 | 0.00 | 0.61 | 0.61 | 87 | 1006.9 |
| 20260506185715 | 51 | 20 | 5.0 | 12.0 | 0.00 | 0.61 | 0.61 | 87 | 1006.9 |
| 20260506185416 | 51 | 22 | 4.0 | 11.0 | 0.00 | 0.61 | 0.61 | 87 | 1006.7 |
| 20260506185116 | 51 | 20 | 5.0 | 9.0 | 0.00 | 0.61 | 0.61 | 87 | 1006.8 |
| 20260506184816 | 51 | 27 | 5.0 | 12.0 | 0.00 | 0.61 | 0.61 | 87 | 1006.8 |
| 20260506184516 | 51 | 24 | 3.0 | 7.0 | 0.00 | 0.61 | 0.61 | 87 | 1006.7 |
| 20260506184255 | 51 | 24 | 4.0 | 9.0 | 0.00 | 0.61 | 0.61 | 87 | 1006.7 |
| 20260506183916 | 51 | 10 | 5.0 | 12.0 | 0.00 | 0.61 | 0.61 | 87 | 1006.7 |
| 20260506183615 | 52 | 10 | 4.0 | 7.0 | 0.00 | 0.61 | 0.61 | 87 | 1006.8 |
| 20260506183316 | 52 | 22 | 4.0 | 9.0 | 0.00 | 0.61 | 0.61 | 87 | 1006.7 |
| 20260506183016 | 52 | 31 | 4.0 | 8.0 | 0.00 | 0.61 | 0.61 | 87 | 1006.7 |
| 20260506182716 | 52 | 28 | 3.0 | 9.0 | 0.00 | 0.61 | 0.61 | 87 | 1006.7 |
| 20260506182416 | 52 | 36 | 2.0 | 7.0 | 0.00 | 0.61 | 0.61 | 87 | 1006.7 |
| 20260506182156 | 52 | 32 | 3.0 | 7.0 | 0.00 | 0.61 | 0.61 | 87 | 1006.6 |
| 20260506181816 | 52 | 35 | 3.0 | 7.0 | 0.00 | 0.61 | 0.61 | 87 | 1006.6 |
| 20260506181515 | 52 | 35 | 5.0 | 8.0 | 0.00 | 0.61 | 0.61 | 87 | 1006.5 |
| 20260506181336 | 52 | 32 | 4.0 | 10.0 | 0.00 | 0.61 | 0.61 | 87 | 1006.4 |
| 20260506180916 | 52 | 26 | 2.0 | 6.0 | 0.00 | 0.61 | 0.61 | 87 | 1006.4 |
| 20260506180616 | 52 | 12 | 3.0 | 7.0 | 0.00 | 0.61 | 0.61 | 86 | 1006.3 |
| 20260506180315 | 52 | 23 | 4.0 | 11.0 | 0.00 | 0.61 | 0.61 | 86 | 1006.3 |
| 20260506180016 | 52 | 18 | 4.0 | 9.0 | 0.00 | 0.61 | 0.61 | 86 | 1006.3 |
| 20260506175716 | 52 | 26 | 4.0 | 7.0 | 0.00 | 0.61 | 0.61 | 86 | 1006.3 |
| 20260506175415 | 52 | 12 | 3.0 | 7.0 | 0.00 | 0.61 | 0.61 | 86 | 1006.3 |
| 20260506175115 | 52 | 20 | 3.0 | 7.0 | 0.00 | 0.61 | 0.61 | 86 | 1006.3 |
| 20260506174816 | 52 | 17 | 3.0 | 8.0 | 0.00 | 0.61 | 0.61 | 86 | 1006.3 |
| 20260506174559 | 52 | 17 | 4.0 | 7.0 | 0.00 | 0.61 | 0.61 | 86 | 1006.3 |
| 20260506174217 | 52 | 9 | 3.0 | 7.0 | 0.00 | 0.61 | 0.61 | 86 | 1006.3 |
| 20260506173916 | 53 | 33 | 5.0 | 8.0 | 0.00 | 0.61 | 0.61 | 86 | 1006.3 |
| 20260506173616 | 53 | 40 | 4.0 | 7.0 | 0.00 | 0.61 | 0.61 | 87 | 1006.3 |
| 20260506173315 | 53 | 18 | 3.0 | 5.0 | 0.00 | 0.61 | 0.61 | 86 | 1006.3 |
| 20260506173016 | 53 | 11 | 4.0 | 7.0 | 0.00 | 0.61 | 0.61 | 86 | 1006.3 |
| 20260506172756 | 53 | 12 | 3.0 | 7.0 | 0.00 | 0.61 | 0.61 | 86 | 1006.3 |
| 20260506172416 | 53 | 17 | 3.0 | 5.0 | 0.00 | 0.61 | 0.61 | 86 | 1006.3 |
| 20260506172236 | 52 | 13 | 4.0 | 10.0 | 0.00 | 0.61 | 0.61 | 86 | 1006.3 |
| 20260506171816 | 53 | 6 | 5.0 | 10.0 | 0.00 | 0.61 | 0.61 | 85 | 1006.4 |
| 20260506171516 | 53 | 13 | 5.0 | 9.0 | 0.00 | 0.61 | 0.61 | 85 | 1006.4 |
| 20260506171215 | 53 | 12 | 4.0 | 7.0 | 0.00 | 0.61 | 0.61 | 85 | 1006.4 |
| 20260506170916 | 53 | 12 | 4.0 | 9.0 | 0.00 | 0.61 | 0.61 | 85 | 1006.4 |
| 20260506170616 | 53 | 6 | 5.0 | 12.0 | 0.00 | 0.61 | 0.61 | 85 | 1006.4 |
| 20260506170316 | 53 | 15 | 5.0 | 9.0 | 0.00 | 0.61 | 0.61 | 86 | 1006.3 |
| 20260506170016 | 53 | 10 | 4.0 | 10.0 | 0.00 | 0.61 | 0.61 | 86 | 1006.3 |
| 20260506165716 | 53 | 10 | 5.0 | 8.0 | 0.00 | 0.61 | 0.61 | 85 | 1006.3 |
| 20260506165416 | 53 | 7 | 8.0 | 15.0 | 0.00 | 0.61 | 0.61 | 85 | 1006.2 |
| 20260506165115 | 53 | 15 | 6.0 | 16.0 | 0.00 | 0.61 | 0.61 | 85 | 1006.2 |
| 20260506164816 | 54 | 13 | 7.0 | 14.0 | 0.00 | 0.61 | 0.61 | 85 | 1006.3 |
| 20260506164516 | 54 | 7 | 5.0 | 10.0 | 0.00 | 0.61 | 0.61 | 85 | 1006.2 |
| 20260506164256 | 54 | 20 | 5.0 | 10.0 | 0.00 | 0.61 | 0.61 | 85 | 1006.3 |
| 20260506164036 | 54 | 7 | 7.0 | 13.0 | 0.00 | 0.61 | 0.61 | 85 | 1006.3 |
| 20260506163616 | 54 | 4 | 5.0 | 10.0 | 0.00 | 0.61 | 0.61 | 85 | 1006.3 |
| 20260506163316 | 54 | 9 | 5.0 | 12.0 | 0.00 | 0.61 | 0.61 | 85 | 1006.4 |
| 20260506163015 | 54 | 6 | 7.0 | 10.0 | 0.00 | 0.61 | 0.61 | 85 | 1006.3 |
| 20260506162716 | 54 | 10 | 5.0 | 10.0 | 0.00 | 0.61 | 0.61 | 85 | 1006.4 |
| 20260506162419 | 54 | 20 | 3.0 | 7.0 | 0.00 | 0.61 | 0.61 | 85 | 1006.4 |
| 20260506162116 | 54 | 3 | 3.0 | 6.0 | 0.00 | 0.61 | 0.61 | 85 | 1006.4 |
| 20260506161856 | 54 | 7 | 4.0 | 10.0 | 0.00 | 0.61 | 0.61 | 85 | 1006.4 |
| 20260506161516 | 54 | 10 | 5.0 | 9.0 | 0.00 | 0.61 | 0.61 | 85 | 1006.3 |
| 20260506161216 | 54 | 10 | 4.0 | 9.0 | 0.00 | 0.61 | 0.61 | 85 | 1006.4 |
| 20260506160915 | 54 | 5 | 5.0 | 9.0 | 0.00 | 0.61 | 0.61 | 85 | 1006.4 |
| 20260506160616 | 54 | 17 | 6.0 | 10.0 | 0.00 | 0.61 | 0.61 | 85 | 1006.4 |
| 20260506160439 | 54 | 18 | 5.0 | 9.0 | 0.00 | 0.61 | 0.61 | 85 | 1006.4 |
| 20260506160016 | 55 | 11 | 6.0 | 11.0 | 0.00 | 0.61 | 0.61 | 85 | 1006.4 |
| 20260506155716 | 55 | 1 | 4.0 | 7.0 | 0.00 | 0.61 | 0.61 | 85 | 1006.4 |
| 20260506155455 | 55 | 10 | 7.0 | 12.0 | 0.00 | 0.61 | 0.61 | 85 | 1006.3 |
| 20260506155116 | 54 | 8 | 6.0 | 11.0 | 0.00 | 0.61 | 0.61 | 86 | 1006.3 |
| 20260506154815 | 54 | 13 | 5.0 | 9.0 | 0.00 | 0.61 | 0.61 | 86 | 1006.3 |
| 20260506154516 | 54 | 4 | 4.0 | 9.0 | 0.00 | 0.61 | 0.61 | 86 | 1006.4 |
| 20260506154215 | 54 | 12 | 4.0 | 10.0 | 0.00 | 0.61 | 0.61 | 86 | 1006.4 |
| 20260506153916 | 54 | 11 | 6.0 | 13.0 | 0.00 | 0.61 | 0.61 | 87 | 1006.4 |
| 20260506153616 | 54 | 9 | 5.0 | 10.0 | 0.00 | 0.61 | 0.61 | 87 | 1006.4 |
| 20260506153319 | 54 | 13 | 5.0 | 11.0 | 0.00 | 0.61 | 0.61 | 87 | 1006.4 |
| 20260506153016 | 54 | 7 | 4.0 | 8.0 | 0.00 | 0.61 | 0.61 | 87 | 1006.4 |
| 20260506152716 | 54 | 11 | 5.0 | 9.0 | 0.00 | 0.61 | 0.61 | 86 | 1006.5 |
| 20260506152416 | 54 | 12 | 6.0 | 12.0 | 0.00 | 0.61 | 0.61 | 86 | 1006.4 |
| 20260506152156 | 54 | 15 | 4.0 | 8.0 | 0.00 | 0.61 | 0.61 | 86 | 1006.5 |
| 20260506151816 | 55 | 18 | 4.0 | 7.0 | 0.00 | 0.61 | 0.61 | 86 | 1006.5 |
| 20260506151516 | 55 | 14 | 4.0 | 8.0 | 0.00 | 0.61 | 0.61 | 86 | 1006.5 |
| 20260506151216 | 55 | 15 | 5.0 | 9.0 | 0.00 | 0.61 | 0.61 | 86 | 1006.3 |
| 20260506150916 | 55 | 8 | 6.0 | 12.0 | 0.00 | 0.61 | 0.61 | 86 | 1006.3 |
| 20260506150615 | 54 | 9 | 6.0 | 11.0 | 0.00 | 0.61 | 0.61 | 86 | 1006.3 |
| 20260506150316 | 54 | 14 | 6.0 | 12.0 | 0.00 | 0.61 | 0.61 | 86 | 1006.3 |